Regional Weather Roundup
Issued by NWS

Home | Current Version | Previous Version | Text Only | Print | Product List | Glossary Off
Versions: 1 2 3 4 5 6 7 8 9 10 11 12 13 14 15 16 17 18 19 20 21 22 23 24 25 26 27 28 29 30 31 32 33 34 35 36 37 38 39 40 41 42 43 44 45 46 47 48 49 50

000
ASUS43 KLSX 262207
RWRMO
STLRWRMO ALL

WEATHER SUMMARY FOR MISSOURI
NATIONAL WEATHER SERVICE SPRINGFIELD MO
500 PM CDT FRI MAY 26 2017

NOTE: "FAIR" INDICATES FEW OR NO CLOUDS BELOW 12,000 FEET WITH NO
       SIGNIFICANT WEATHER AND/OR OBSTRUCTIONS TO VISIBILITY.
       CURRENT SKY AND/OR WEATHER CONDITIONS ARE NOT AVAILABLE FOR
       CHILLICOTHE AND FARMINGTON.

MOZ001>031-035>038-043-044-053-054-262300-
...NORTHERN AND WESTERN MISSOURI...

CITY           SKY/WX    TMP DP  RH WIND       PRES   REMARKS
KANSAS CTY INT PTSUNNY   84  64  50 NE8       29.77S
KANSAS C DTWN  PTSUNNY   86  65  49 NE9       29.75S
LEE`S SUMMIT   MOSUNNY   81  65  58 CALM      29.78R
ST JOSEPH      MOSUNNY   86  63  45 NE8       29.76S
CHILLICOTHE      N/A     84  64  50 N6        29.77R
KIRKSVILLE     MOSUNNY   78  64  61 N7        29.78R

$$
MOZ066>068-077>081-088>096-101>105-262300-
...SOUTHWEST MISSOURI...

CITY           SKY/WX    TMP DP  RH WIND       PRES   REMARKS
SPRINGFIELD    PTSUNNY   81  68  64 W8        29.77S
JOPLIN         MOSUNNY   84  70  62 NW6       29.77R
BRANSON        MOSUNNY   82  66  57 SW7       29.80R

$$
MOZ032>034-039>042-045>050-055>058-069>072-262300-
...CENTRAL MISSOURI...

CITY           SKY/WX    TMP DP  RH WIND       PRES   REMARKS
COLUMBIA       CLOUDY    79  67  66 W8        29.77R
JEFFERSON CITY CLOUDY    82  66  58 W6        29.75R
ROLLA          CLOUDY    75  67  76 W6        29.77R
SEDALIA        CLOUDY    81  68  64 W5        29.78R
WHITEMAN AFB   MOSUNNY   80  69  68 N7        29.76R
WARRENSBURG    PTSUNNY   79  64  61 N3        29.77R
OSAGE BEACH    CLOUDY    79  68  69 W6        29.78R

$$
MOZ051-052-059>065-262300-
...EAST CENTRAL MISSOURI...

CITY           SKY/WX    TMP DP  RH WIND       PRES   REMARKS
ST LOUIS INTL  CLOUDY    80  66  62 S14       29.75R
SPIRIT OF STL  CLOUDY    77  68  73 S7        29.73S
ST CHARLES     CLOUDY    79  67  66 S15       29.72R

$$
MOZ072>076-082>087-097>100-106>115-262300-
...SOUTH CENTRAL AND SOUTHEAST MISSOURI...

CITY           SKY/WX    TMP DP  RH WIND       PRES   REMARKS
CAPE GIRARDEAU CLOUDY    75  64  68 SW17      29.80R
FARMINGTON     CLOUDY    72  66  81 SW8       29.81R
POPLAR BLUFF   LGT RAIN  75  68  78 SW12G21   29.80R
WEST PLAINS    CLOUDY    77  68  73 VRB7      29.81S

$$



USA.gov is the U.S. government's official web portal to all federal, state and local government web resources and services.